+ View the NASA Portal
+ Center for Near-Earth Object Studies
IMPORTANT:
The SSD Announcement email list is now available. Major changes are coming in the near future, including possible hostname and/or URL changes. To be notified of such changes, subscribe to this email list.
Please visit
this page
for more details.
Don't show this message again
JPL Small-Body Database Browser
Search:
[
help
]
312225 (2007 XP1)
Classification:
Main-belt Asteroid
SPK-ID:
2312225
[
Ephemeris
|
Orbit Diagram
|
Orbital Elements
|
Mission Design
|
Physical Parameters
|
Discovery Circumstances
|
Close-Approach Data
]
[ show orbit diagram ]
Orbital Elements at Epoch 2458600.5 (2019-Apr-27.0) TDB
Reference:
JPL 9
(heliocentric ecliptic J2000)
Element
Value
Uncertainty (1-sigma)
Units
e
.1541641970036721
9.2581e-08
a
2.434175651039217
1.8827e-08
au
q
2.058912916430865
2.2283e-07
au
i
3.654851448088713
5.6031e-06
deg
node
81.86760324384571
0.00014934
deg
peri
42.36372855219498
0.00015462
deg
M
321.3887151730414
3.8612e-05
deg
t
p
2458749.277771876146
(2019-Sep-22.77777188)
0.00014929
TDB
period
1387.159171611315
3.80
1.6093e-05
4.406e-08
d
yr
n
.2595232092808976
3.0109e-09
deg/d
Q
2.809438385647569
2.1729e-08
au
Orbit Determination Parameters
# obs. used (total)
131
data-arc span
6391 days (17.50 yr)
first obs. used
2001-04-16
last obs. used
2018-10-15
planetary ephem.
DE431
SB-pert. ephem.
SB431-N16
condition code
0
norm. resid. RMS
.66615
source
ORB
producer
Otto Matic
solution date
2018-Oct-31 04:40:36
Additional Information
Earth MOID
= 1.07662 au
Jupiter MOID
= 2.25919 au
T_jup
= 3.486
[ show covariance matrix ]
[
Ephemeris
|
Orbit Diagram
|
Orbital Elements
|
Mission Design
|
Physical Parameters
|
Discovery Circumstances
|
Close-Approach Data
]
Physical Parameter Table
Parameter
Symbol
Value
Units
Sigma
Reference
Notes
absolute magnitude
H
17.7
n/a
MPO455301
312225 (2007 XP1)
Discovered 2007-Dec-03 by CSS at Catalina
Reference:
20120109/Numbers.arc
Last Updated:
2012-01-11
[ show close-approach data ]
Alternate Designations
2007 XP1
= 2005 GH206
[
Ephemeris
|
Orbit Diagram
|
Orbital Elements
|
Mission Design
|
Physical Parameters
|
Discovery Circumstances
|
Close-Approach Data
]
2019-Dec-10 05:26 UT
(server date/time)
Site Manager:
Ryan S. Park
Webmaster
:
Alan B. Chamberlin